Cherryvale, KS

6:11 AM CDT on August 28, 2016 (GMT -0500)
Tri-City

Weather History for KPPF - March, 2014

Change the Weather History Date:

Thursday, March 13, 2014

  Actual Average Record
Temperature  
Mean Temperature 48 °F -  
Max Temperature 71 °F 57 °F 81 °F (2012)
Min Temperature 26 °F 35 °F 13 °F (1950)
Degree Days  
Heating Degree Days 17    
Moisture  
Dew Point 22 °F    
Average Humidity 44    
Maximum Humidity 82    
Minimum Humidity 13    
Precipitation  
Precipitation 0.00 in - - ()
Sea Level Pressure  
Sea Level Pressure 30.08 in    
Wind  
Wind Speed 5 mph (SSW)    
Max Wind Speed 18 mph    
Max Gust Speed 30 mph    
Visibility 10 miles    
Events      
Averages and records for this station are not official NWS values.
T = Trace of Precipitation, MM = Missing Value Source: NWS Daily Summary

Daily Weather History Graph

Daily Weather History Graph

Search for Another Location

Airport or City:

Trip Planner

Search our weather history database for the weather conditions in past years. The results will help you decide how hot, cold, wet, or windy it might be!

Date:

Astronomy

Mar. 13, 2014 Rise Set
Actual Time 7:35 AM CDT 7:27 PM CDT
Civil Twilight 7:09 AM CDT 7:53 PM CDT
Nautical Twilight 6:39 AM CDT 8:23 PM CDT
Astronomical Twilight 6:09 AM CDT 8:54 PM CDT
Moon 4:56 PM CDT (3/13) 5:40 AM CDT (3/13)
Length of Visible Light 12h 43m
Length of Day
11h 51m
Waxing Gibbous, 91% of the Moon is Illuminated
Mar 13
Waxing Gibbous
Mar 16
Full
Mar 23
Last Quarter
Mar 30
New
Apr 7
First Quarter

Hourly Weather History & Observations

Time (CDT) Temp. Windchill Dew Point Humidity Pressure Visibility Wind Dir Wind Speed Gust Speed Precip Events Conditions
12:52 AM 30.9 °F - 24.1 °F 76% 30.19 in 10.0 mi Calm Calm - N/A   Clear
1:52 AM 28.9 °F - 24.1 °F 82% 30.18 in 10.0 mi Calm Calm - N/A   Clear
2:52 AM 28.9 °F - 23.0 °F 78% 30.17 in 10.0 mi Calm Calm - N/A   Clear
3:52 AM 28.9 °F - 23.0 °F 78% 30.16 in 10.0 mi Calm Calm - N/A   Clear
4:52 AM 28.0 °F - 23.0 °F 81% 30.15 in 10.0 mi Calm Calm - N/A   Clear
5:52 AM 27.0 °F - 21.9 °F 81% 30.16 in 10.0 mi Calm Calm - N/A   Clear
6:52 AM 27.0 °F 23.0 °F 21.9 °F 81% 30.16 in 10.0 mi South 3.5 mph - N/A   Clear
7:52 AM 26.1 °F - 21.0 °F 81% 30.17 in 10.0 mi Calm Calm - N/A   Clear
8:52 AM 37.9 °F 35.5 °F 27.0 °F 65% 30.18 in 10.0 mi South 3.5 mph - N/A   Clear
9:52 AM 46.0 °F 41.9 °F 27.0 °F 47% 30.18 in 10.0 mi SW 8.1 mph - N/A   Clear
10:52 AM 54.0 °F - 26.1 °F 34% 30.17 in 10.0 mi WSW 9.2 mph - N/A   Clear
11:52 AM 60.1 °F - 25.0 °F 26% 30.15 in 10.0 mi SW 11.5 mph - N/A   Clear
12:52 PM 64.9 °F - 21.0 °F 19% 30.12 in 10.0 mi WSW 13.8 mph 21.9 mph N/A   Clear
1:52 PM 66.9 °F - 19.0 °F 16% 30.09 in 10.0 mi WSW 16.1 mph 24.2 mph N/A   Clear
2:52 PM 70.0 °F - 18.0 °F 14% 30.05 in 10.0 mi SSW 17.3 mph 23.0 mph N/A   Clear
3:52 PM 70.0 °F - 17.1 °F 13% 30.02 in 10.0 mi SW 18.4 mph 29.9 mph N/A   Clear
4:52 PM 70.0 °F - 17.1 °F 13% 29.99 in 10.0 mi SW 17.3 mph 23.0 mph N/A   Clear
5:52 PM 69.1 °F - 18.0 °F 14% 29.96 in 10.0 mi SSW 12.7 mph 23.0 mph N/A   Clear
6:52 PM 66.0 °F - 19.0 °F 17% 29.95 in 10.0 mi South 10.4 mph - N/A   Clear
7:52 PM 60.1 °F - 19.9 °F 21% 29.95 in 10.0 mi South 8.1 mph - N/A   Clear
8:52 PM 55.0 °F - 21.0 °F 27% 29.95 in 10.0 mi South 6.9 mph - N/A   Clear
9:52 PM 52.0 °F - 23.0 °F 32% 29.94 in 10.0 mi South 8.1 mph - N/A   Clear
10:52 PM 50.0 °F - 23.0 °F 35% 29.95 in 10.0 mi South 6.9 mph - N/A   Clear
11:52 PM 50.0 °F - 24.1 °F 36% 29.91 in 10.0 mi South 9.2 mph - N/A   Clear